owner,sensor,date,latitude,longitude,vertical_datum,mass_concentration_of_oxygen_in_sea_water,qcFlag 
SCCF RECON,ioos:station:SCCF:53:1,2011-12-01T00:00:00Z,26.6493,-81.8810,2.303,6.64,1111122 
SCCF RECON,ioos:station:SCCF:53:1,2011-12-01T01:00:00Z,26.6493,-81.8810,2.338,6.01,1111122 
SCCF RECON,ioos:station:SCCF:53:1,2011-12-01T02:00:00Z,26.6493,-81.8810,2.333,5.57,1111122 
SCCF RECON,ioos:station:SCCF:53:1,2011-12-01T03:00:00Z,26.6493,-81.8810,2.3,5.41,1111122 
SCCF RECON,ioos:station:SCCF:53:1,2011-12-01T04:00:00Z,26.6493,-81.8810,2.26,5.55,1111122 
SCCF RECON,ioos:station:SCCF:53:1,2011-12-01T05:00:00Z,26.6493,-81.8810,2.221,4.98,1111122 
SCCF RECON,ioos:station:SCCF:53:1,2011-12-01T06:00:00Z,26.6493,-81.8810,2.19,4.87,1111122 
SCCF RECON,ioos:station:SCCF:53:1,2011-12-01T07:00:00Z,26.6493,-81.8810,2.16,4.88,1111122 
SCCF RECON,ioos:station:SCCF:53:1,2011-12-01T08:00:00Z,26.6493,-81.8810,2.15,5.46,1111122 
SCCF RECON,ioos:station:SCCF:53:1,2011-12-01T09:00:00Z,26.6493,-81.8810,2.16,6.03,1111122 
SCCF RECON,ioos:station:SCCF:53:1,2011-12-01T10:00:00Z,26.6493,-81.8810,2.204,5.73,1111122 
SCCF RECON,ioos:station:SCCF:53:1,2011-12-01T11:00:00Z,26.6493,-81.8810,2.24,6.19,1111122 
SCCF RECON,ioos:station:SCCF:53:1,2011-12-01T12:00:00Z,26.6493,-81.8810,2.278,5.96,1111122 
SCCF RECON,ioos:station:SCCF:53:1,2011-12-01T13:00:00Z,26.6493,-81.8810,2.28,5.68,1111122 
SCCF RECON,ioos:station:SCCF:53:1,2011-12-01T14:00:00Z,26.6493,-81.8810,2.248,5.71,1111122 
SCCF RECON,ioos:station:SCCF:53:1,2011-12-01T15:00:00Z,26.6493,-81.8810,2.21,5.31,1111122 
SCCF RECON,ioos:station:SCCF:53:1,2011-12-01T16:00:00Z,26.6493,-81.8810,2.16,5.51,1111122 
SCCF RECON,ioos:station:SCCF:53:1,2011-12-01T17:00:00Z,26.6493,-81.8810,2.109,5.79,1111122 
SCCF RECON,ioos:station:SCCF:53:1,2011-12-01T18:00:00Z,26.6493,-81.8810,2.06,6.05,1111122 
SCCF RECON,ioos:station:SCCF:53:1,2011-12-01T19:00:00Z,26.6493,-81.8810,2.02,5.84,1111122 
SCCF RECON,ioos:station:SCCF:53:1,2011-12-01T20:00:00Z,26.6493,-81.8810,1.998,6.06,1111122 
SCCF RECON,ioos:station:SCCF:53:1,2011-12-01T21:00:00Z,26.6493,-81.8810,2.018,6.72,1111122 
SCCF RECON,ioos:station:SCCF:53:1,2011-12-01T22:00:00Z,26.6493,-81.8810,2.07,7.22,1111122 
SCCF RECON,ioos:station:SCCF:53:1,2011-12-01T23:00:00Z,26.6493,-81.8810,2.12,7.32,1111122 
SCCF RECON,ioos:station:SCCF:53:1,2011-12-02T00:00:00Z,26.6493,-81.8810,2.171,7.33,1111122 
SCCF RECON,ioos:station:SCCF:53:1,2011-12-02T01:00:00Z,26.6493,-81.8810,2.23,7.35,1111122 
SCCF RECON,ioos:station:SCCF:53:1,2011-12-02T02:00:00Z,26.6493,-81.8810,2.26,7.35,1111122 
SCCF RECON,ioos:station:SCCF:53:1,2011-12-02T03:00:00Z,26.6493,-81.8810,2.26,7.2,1111122 
SCCF RECON,ioos:station:SCCF:53:1,2011-12-02T04:00:00Z,26.6493,-81.8810,2.22,7.39,1111122 
SCCF RECON,ioos:station:SCCF:53:1,2011-12-02T05:00:00Z,26.6493,-81.8810,2.175,7.13,1111122 
SCCF RECON,ioos:station:SCCF:53:1,2011-12-02T06:00:00Z,26.6493,-81.8810,2.14,7.12,1111122 
SCCF RECON,ioos:station:SCCF:53:1,2011-12-02T07:00:00Z,26.6493,-81.8810,2.11,6.86,1111122 
SCCF RECON,ioos:station:SCCF:53:1,2011-12-02T08:00:00Z,26.6493,-81.8810,2.08,6.95,1111122 
SCCF RECON,ioos:station:SCCF:53:1,2011-12-02T09:00:00Z,26.6493,-81.8810,2.07,7.09,1111122 
SCCF RECON,ioos:station:SCCF:53:1,2011-12-02T10:00:00Z,26.6493,-81.8810,2.08,7.14,1111122 
SCCF RECON,ioos:station:SCCF:53:1,2011-12-02T11:00:00Z,26.6493,-81.8810,2.11,7.19,1111122 
SCCF RECON,ioos:station:SCCF:53:1,2011-12-02T12:00:00Z,26.6493,-81.8810,2.15,7.4,1111122 
SCCF RECON,ioos:station:SCCF:53:1,2011-12-02T13:00:00Z,26.6493,-81.8810,2.18,7.41,1111122 
SCCF RECON,ioos:station:SCCF:53:1,2011-12-02T14:00:00Z,26.6493,-81.8810,2.21,7.34,1111122 
SCCF RECON,ioos:station:SCCF:53:1,2011-12-02T15:00:00Z,26.6493,-81.8810,2.21,7.44,1111122 
SCCF RECON,ioos:station:SCCF:53:1,2011-12-02T16:00:00Z,26.6493,-81.8810,2.171,7.52,1111122 
SCCF RECON,ioos:station:SCCF:53:1,2011-12-02T17:00:00Z,26.6493,-81.8810,2.13,7.56,1111122 
SCCF RECON,ioos:station:SCCF:53:1,2011-12-02T18:00:00Z,26.6493,-81.8810,2.084,7.44,1111122 
SCCF RECON,ioos:station:SCCF:53:1,2011-12-02T19:00:00Z,26.6493,-81.8810,2.049,7.27,1111122 
SCCF RECON,ioos:station:SCCF:53:1,2011-12-02T20:00:00Z,26.6493,-81.8810,2.02,7.36,1111122 
SCCF RECON,ioos:station:SCCF:53:1,2011-12-02T21:00:00Z,26.6493,-81.8810,2.009,7.29,1111122 
SCCF RECON,ioos:station:SCCF:53:1,2011-12-02T22:00:00Z,26.6493,-81.8810,2.02,7.53,1111122 
SCCF RECON,ioos:station:SCCF:53:1,2011-12-02T23:00:00Z,26.6493,-81.8810,2.08,7.5,1111122 
SCCF RECON,ioos:station:SCCF:53:1,2011-12-03T00:00:00Z,26.6493,-81.8810,2.135,7.57,1111122 
SCCF RECON,ioos:station:SCCF:53:1,2011-12-03T01:00:00Z,26.6493,-81.8810,2.182,7.59,1111122 
SCCF RECON,ioos:station:SCCF:53:1,2011-12-03T02:00:00Z,26.6493,-81.8810,2.239,7.51,1111122 
SCCF RECON,ioos:station:SCCF:53:1,2011-12-03T03:00:00Z,26.6493,-81.8810,2.27,7.51,1111122 
SCCF RECON,ioos:station:SCCF:53:1,2011-12-03T04:00:00Z,26.6493,-81.8810,2.26,7.58,1111122 
SCCF RECON,ioos:station:SCCF:53:1,2011-12-03T05:00:00Z,26.6493,-81.8810,2.21,7.63,1111122 
SCCF RECON,ioos:station:SCCF:53:1,2011-12-03T06:00:00Z,26.6493,-81.8810,2.17,7.45,1111122 
SCCF RECON,ioos:station:SCCF:53:1,2011-12-03T07:00:00Z,26.6493,-81.8810,2.123,7.31,1111122 
SCCF RECON,ioos:station:SCCF:53:1,2011-12-03T08:00:00Z,26.6493,-81.8810,2.08,7.32,1111122 
SCCF RECON,ioos:station:SCCF:53:1,2011-12-03T09:00:00Z,26.6493,-81.8810,2.05,6.96,1111122 
SCCF RECON,ioos:station:SCCF:53:1,2011-12-03T10:00:00Z,26.6493,-81.8810,2.033,6.82,1111122 
SCCF RECON,ioos:station:SCCF:53:1,2011-12-03T11:00:00Z,26.6493,-81.8810,2.05,7.05,1111122 
SCCF RECON,ioos:station:SCCF:53:1,2011-12-03T12:00:00Z,26.6493,-81.8810,2.09,7.2,1111122 
SCCF RECON,ioos:station:SCCF:53:1,2011-12-03T13:00:00Z,26.6493,-81.8810,2.13,7.27,1111122 
SCCF RECON,ioos:station:SCCF:53:1,2011-12-03T14:00:00Z,26.6493,-81.8810,2.17,7.38,1111122 
SCCF RECON,ioos:station:SCCF:53:1,2011-12-03T15:00:00Z,26.6493,-81.8810,2.205,7.36,1111122 
SCCF RECON,ioos:station:SCCF:53:1,2011-12-03T16:00:00Z,26.6493,-81.8810,2.208,6.99,1111122 
SCCF RECON,ioos:station:SCCF:53:1,2011-12-03T17:00:00Z,26.6493,-81.8810,2.17,7.08,1111122 
SCCF RECON,ioos:station:SCCF:53:1,2011-12-03T18:00:00Z,26.6493,-81.8810,2.14,7.43,1111122 
SCCF RECON,ioos:station:SCCF:53:1,2011-12-03T19:00:00Z,26.6493,-81.8810,2.103,7.61,1111122 
SCCF RECON,ioos:station:SCCF:53:1,2011-12-03T20:00:00Z,26.6493,-81.8810,2.078,7.64,1111122 
SCCF RECON,ioos:station:SCCF:53:1,2011-12-03T21:00:00Z,26.6493,-81.8810,2.066,7.72,1111122 
SCCF RECON,ioos:station:SCCF:53:1,2011-12-03T22:00:00Z,26.6493,-81.8810,2.109,7.73,1111122 
SCCF RECON,ioos:station:SCCF:53:1,2011-12-03T23:00:00Z,26.6493,-81.8810,2.164,7.73,1111122 
SCCF RECON,ioos:station:SCCF:53:1,2011-12-04T00:00:00Z,26.6493,-81.8810,2.212,7.76,1111122 
SCCF RECON,ioos:station:SCCF:53:1,2011-12-04T01:00:00Z,26.6493,-81.8810,2.267,7.66,1111122 
SCCF RECON,ioos:station:SCCF:53:1,2011-12-04T02:00:00Z,26.6493,-81.8810,2.313,7.6,1111122 
SCCF RECON,ioos:station:SCCF:53:1,2011-12-04T03:00:00Z,26.6493,-81.8810,2.35,7.53,1111122 
SCCF RECON,ioos:station:SCCF:53:1,2011-12-04T04:00:00Z,26.6493,-81.8810,2.37,7.51,1111122 
SCCF RECON,ioos:station:SCCF:53:1,2011-12-04T05:00:00Z,26.6493,-81.8810,2.35,7.48,1111122 
SCCF RECON,ioos:station:SCCF:53:1,2011-12-04T06:00:00Z,26.6493,-81.8810,2.3,7.42,1111122 
SCCF RECON,ioos:station:SCCF:53:1,2011-12-04T07:00:00Z,26.6493,-81.8810,2.25,7.38,1111122 
SCCF RECON,ioos:station:SCCF:53:1,2011-12-04T08:00:00Z,26.6493,-81.8810,2.2,7.32,1111122 
SCCF RECON,ioos:station:SCCF:53:1,2011-12-04T09:00:00Z,26.6493,-81.8810,2.141,7.26,1111122 
SCCF RECON,ioos:station:SCCF:53:1,2011-12-04T10:00:00Z,26.6493,-81.8810,2.11,7.11,1111122 
SCCF RECON,ioos:station:SCCF:53:1,2011-12-04T11:00:00Z,26.6493,-81.8810,2.09,7.2,1111122 
SCCF RECON,ioos:station:SCCF:53:1,2011-12-04T12:00:00Z,26.6493,-81.8810,2.12,7.36,1111122 
SCCF RECON,ioos:station:SCCF:53:1,2011-12-04T13:00:00Z,26.6493,-81.8810,2.17,7.2,1111122 
SCCF RECON,ioos:station:SCCF:53:1,2011-12-04T14:00:00Z,26.6493,-81.8810,2.201,7.21,1111122 
SCCF RECON,ioos:station:SCCF:53:1,2011-12-04T15:00:00Z,26.6493,-81.8810,2.24,7.21,1111122 
SCCF RECON,ioos:station:SCCF:53:1,2011-12-04T16:00:00Z,26.6493,-81.8810,2.256,7.48,1111122 
SCCF RECON,ioos:station:SCCF:53:1,2011-12-04T17:00:00Z,26.6493,-81.8810,2.244,7.42,1111122 
SCCF RECON,ioos:station:SCCF:53:1,2011-12-04T18:00:00Z,26.6493,-81.8810,2.21,7.4,1111122 
SCCF RECON,ioos:station:SCCF:53:1,2011-12-04T19:00:00Z,26.6493,-81.8810,2.18,7.35,1111122 
SCCF RECON,ioos:station:SCCF:53:1,2011-12-04T20:00:00Z,26.6493,-81.8810,2.156,7.5,1111122 
SCCF RECON,ioos:station:SCCF:53:1,2011-12-04T21:00:00Z,26.6493,-81.8810,2.134,7.6,1111122 
SCCF RECON,ioos:station:SCCF:53:1,2011-12-04T22:00:00Z,26.6493,-81.8810,2.122,7.49,1111122 
SCCF RECON,ioos:station:SCCF:53:1,2011-12-04T23:00:00Z,26.6493,-81.8810,2.16,7.48,1111122 
SCCF RECON,ioos:station:SCCF:53:1,2011-12-05T00:00:00Z,26.6493,-81.8810,2.22,7.32,1111122 
SCCF RECON,ioos:station:SCCF:53:1,2011-12-05T01:00:00Z,26.6493,-81.8810,2.28,7.29,1111122 
SCCF RECON,ioos:station:SCCF:53:1,2011-12-05T02:00:00Z,26.6493,-81.8810,2.33,7.07,1111122 
SCCF RECON,ioos:station:SCCF:53:1,2011-12-05T03:00:00Z,26.6493,-81.8810,2.38,7.19,1111122 
SCCF RECON,ioos:station:SCCF:53:1,2011-12-05T04:00:00Z,26.6493,-81.8810,2.41,7.16,1111122 
SCCF RECON,ioos:station:SCCF:53:1,2011-12-05T05:00:00Z,26.6493,-81.8810,2.42,7.07,1111122 
SCCF RECON,ioos:station:SCCF:53:1,2011-12-05T06:00:00Z,26.6493,-81.8810,2.37,6.83,1111122 
SCCF RECON,ioos:station:SCCF:53:1,2011-12-05T07:00:00Z,26.6493,-81.8810,2.313,6.99,1111122 
SCCF RECON,ioos:station:SCCF:53:1,2011-12-05T08:00:00Z,26.6493,-81.8810,2.26,6.9,1111122 
SCCF RECON,ioos:station:SCCF:53:1,2011-12-05T09:00:00Z,26.6493,-81.8810,2.2,6.92,1111122 
SCCF RECON,ioos:station:SCCF:53:1,2011-12-05T10:00:00Z,26.6493,-81.8810,2.152,6.87,1111122 
SCCF RECON,ioos:station:SCCF:53:1,2011-12-05T11:00:00Z,26.6493,-81.8810,2.11,6.82,1111122 
SCCF RECON,ioos:station:SCCF:53:1,2011-12-05T12:00:00Z,26.6493,-81.8810,2.09,6.78,1111122 
SCCF RECON,ioos:station:SCCF:53:1,2011-12-05T13:00:00Z,26.6493,-81.8810,2.1,6.85,1111122 
SCCF RECON,ioos:station:SCCF:53:1,2011-12-05T14:00:00Z,26.6493,-81.8810,2.153,6.67,1111122 
SCCF RECON,ioos:station:SCCF:53:1,2011-12-05T15:00:00Z,26.6493,-81.8810,2.2,6.77,1111122 
SCCF RECON,ioos:station:SCCF:53:1,2011-12-05T16:00:00Z,26.6493,-81.8810,2.24,6.89,1111122 
SCCF RECON,ioos:station:SCCF:53:1,2011-12-05T17:00:00Z,26.6493,-81.8810,2.27,6.82,1111122 
SCCF RECON,ioos:station:SCCF:53:1,2011-12-05T18:00:00Z,26.6493,-81.8810,2.281,6.93,1111122 
SCCF RECON,ioos:station:SCCF:53:1,2011-12-05T19:00:00Z,26.6493,-81.8810,2.28,6.69,1111122 
SCCF RECON,ioos:station:SCCF:53:1,2011-12-05T20:00:00Z,26.6493,-81.8810,2.28,6.64,1111122 
SCCF RECON,ioos:station:SCCF:53:1,2011-12-05T21:00:00Z,26.6493,-81.8810,2.27,6.64,1111122 
SCCF RECON,ioos:station:SCCF:53:1,2011-12-05T22:00:00Z,26.6493,-81.8810,2.26,6.88,1111122 
SCCF RECON,ioos:station:SCCF:53:1,2011-12-05T23:00:00Z,26.6493,-81.8810,2.27,6.82,1111122 
SCCF RECON,ioos:station:SCCF:53:1,2011-12-06T00:00:00Z,26.6493,-81.8810,2.305,6.83,1111122 
SCCF RECON,ioos:station:SCCF:53:1,2011-12-06T01:00:00Z,26.6493,-81.8810,2.356,6.9,1111122 
SCCF RECON,ioos:station:SCCF:53:1,2011-12-06T02:00:00Z,26.6493,-81.8810,2.4,7.01,1111122 
SCCF RECON,ioos:station:SCCF:53:1,2011-12-06T03:00:00Z,26.6493,-81.8810,2.45,6.73,1111122 
SCCF RECON,ioos:station:SCCF:53:1,2011-12-06T04:00:00Z,26.6493,-81.8810,2.49,6.69,1111122 
SCCF RECON,ioos:station:SCCF:53:1,2011-12-06T05:00:00Z,26.6493,-81.8810,2.502,6.66,1111122 
SCCF RECON,ioos:station:SCCF:53:1,2011-12-06T06:00:00Z,26.6493,-81.8810,2.47,6.47,1111122 
SCCF RECON,ioos:station:SCCF:53:1,2011-12-06T07:00:00Z,26.6493,-81.8810,2.41,6.77,1111122 
SCCF RECON,ioos:station:SCCF:53:1,2011-12-06T08:00:00Z,26.6493,-81.8810,2.35,6.71,1111122 
SCCF RECON,ioos:station:SCCF:53:1,2011-12-06T09:00:00Z,26.6493,-81.8810,2.29,6.75,1111122 
SCCF RECON,ioos:station:SCCF:53:1,2011-12-06T10:00:00Z,26.6493,-81.8810,2.23,6.67,1111122 
SCCF RECON,ioos:station:SCCF:53:1,2011-12-06T11:00:00Z,26.6493,-81.8810,2.18,6.51,1111122 
SCCF RECON,ioos:station:SCCF:53:1,2011-12-06T12:00:00Z,26.6493,-81.8810,2.14,6.52,1111122 
SCCF RECON,ioos:station:SCCF:53:1,2011-12-06T13:00:00Z,26.6493,-81.8810,2.111,6.67,1111122 
SCCF RECON,ioos:station:SCCF:53:1,2011-12-06T14:00:00Z,26.6493,-81.8810,2.126,6.55,1111122 
SCCF RECON,ioos:station:SCCF:53:1,2011-12-06T15:00:00Z,26.6493,-81.8810,2.17,6.42,1111122 
SCCF RECON,ioos:station:SCCF:53:1,2011-12-06T16:00:00Z,26.6493,-81.8810,2.21,6.64,1111122 
SCCF RECON,ioos:station:SCCF:53:1,2011-12-06T17:00:00Z,26.6493,-81.8810,2.25,6.63,1111122 
SCCF RECON,ioos:station:SCCF:53:1,2011-12-06T18:00:00Z,26.6493,-81.8810,2.281,6.38,1111122 
SCCF RECON,ioos:station:SCCF:53:1,2011-12-06T19:00:00Z,26.6493,-81.8810,2.31,6.37,1111122 
SCCF RECON,ioos:station:SCCF:53:1,2011-12-06T20:00:00Z,26.6493,-81.8810,2.319,6.3,1111122 
SCCF RECON,ioos:station:SCCF:53:1,2011-12-06T21:00:00Z,26.6493,-81.8810,2.314,6.2,1111122 
SCCF RECON,ioos:station:SCCF:53:1,2011-12-06T22:00:00Z,26.6493,-81.8810,2.291,6.16,1111122 
SCCF RECON,ioos:station:SCCF:53:1,2011-12-06T23:00:00Z,26.6493,-81.8810,2.27,6.38,1111122 
SCCF RECON,ioos:station:SCCF:53:1,2011-12-07T00:00:00Z,26.6493,-81.8810,2.28,6.13,1111122 
SCCF RECON,ioos:station:SCCF:53:1,2011-12-07T01:00:00Z,26.6493,-81.8810,2.322,5.76,1111122 
SCCF RECON,ioos:station:SCCF:53:1,2011-12-07T02:00:00Z,26.6493,-81.8810,2.387,6.22,1111122 
SCCF RECON,ioos:station:SCCF:53:1,2011-12-07T03:00:00Z,26.6493,-81.8810,2.44,6.59,1111122 
SCCF RECON,ioos:station:SCCF:53:1,2011-12-07T04:00:00Z,26.6493,-81.8810,2.48,6.36,1111122 
SCCF RECON,ioos:station:SCCF:53:1,2011-12-07T05:00:00Z,26.6493,-81.8810,2.51,6.24,1111122 
SCCF RECON,ioos:station:SCCF:53:1,2011-12-07T06:00:00Z,26.6493,-81.8810,2.51,6.26,1111122 
SCCF RECON,ioos:station:SCCF:53:1,2011-12-07T07:00:00Z,26.6493,-81.8810,2.461,6.19,1111122 
SCCF RECON,ioos:station:SCCF:53:1,2011-12-07T08:00:00Z,26.6493,-81.8810,2.4,6.34,1111122 
SCCF RECON,ioos:station:SCCF:53:1,2011-12-07T09:00:00Z,26.6493,-81.8810,2.34,6.19,1111122 
SCCF RECON,ioos:station:SCCF:53:1,2011-12-07T10:00:00Z,26.6493,-81.8810,2.28,6.14,1111122 
SCCF RECON,ioos:station:SCCF:53:1,2011-12-07T11:00:00Z,26.6493,-81.8810,2.22,6.09,1111122 
SCCF RECON,ioos:station:SCCF:53:1,2011-12-07T12:00:00Z,26.6493,-81.8810,2.178,6.14,1111122 
SCCF RECON,ioos:station:SCCF:53:1,2011-12-07T13:00:00Z,26.6493,-81.8810,2.13,6.21,1111122 
SCCF RECON,ioos:station:SCCF:53:1,2011-12-07T14:00:00Z,26.6493,-81.8810,2.11,6.14,1111122 
SCCF RECON,ioos:station:SCCF:53:1,2011-12-07T15:00:00Z,26.6493,-81.8810,2.139,6.18,1111122 
SCCF RECON,ioos:station:SCCF:53:1,2011-12-07T16:00:00Z,26.6493,-81.8810,2.18,6.17,1111122 
SCCF RECON,ioos:station:SCCF:53:1,2011-12-07T17:00:00Z,26.6493,-81.8810,2.221,5.97,1111122 
SCCF RECON,ioos:station:SCCF:53:1,2011-12-07T18:00:00Z,26.6493,-81.8810,2.26,6.01,1111122 
SCCF RECON,ioos:station:SCCF:53:1,2011-12-07T19:00:00Z,26.6493,-81.8810,2.299,6.01,1111122 
SCCF RECON,ioos:station:SCCF:53:1,2011-12-07T20:00:00Z,26.6493,-81.8810,2.32,6.27,1111122 
SCCF RECON,ioos:station:SCCF:53:1,2011-12-07T21:00:00Z,26.6493,-81.8810,2.328,6.43,1111122 
SCCF RECON,ioos:station:SCCF:53:1,2011-12-07T22:00:00Z,26.6493,-81.8810,2.314,6.45,1111122 
SCCF RECON,ioos:station:SCCF:53:1,2011-12-07T23:00:00Z,26.6493,-81.8810,2.292,6.29,1111122 
SCCF RECON,ioos:station:SCCF:53:1,2011-12-08T00:00:00Z,26.6493,-81.8810,2.279,6.76,1111122 
SCCF RECON,ioos:station:SCCF:53:1,2011-12-08T01:00:00Z,26.6493,-81.8810,2.312,7.69,1111122 
SCCF RECON,ioos:station:SCCF:53:1,2011-12-08T02:00:00Z,26.6493,-81.8810,2.365,7.11,1111122 
SCCF RECON,ioos:station:SCCF:53:1,2011-12-08T03:00:00Z,26.6493,-81.8810,2.4,6.08,1111122 
SCCF RECON,ioos:station:SCCF:53:1,2011-12-08T04:00:00Z,26.6493,-81.8810,2.399,5.66,1111122 
SCCF RECON,ioos:station:SCCF:53:1,2011-12-08T05:00:00Z,26.6493,-81.8810,2.36,5.42,1111122 
SCCF RECON,ioos:station:SCCF:53:1,2011-12-08T06:00:00Z,26.6493,-81.8810,2.31,5.53,1111122 
SCCF RECON,ioos:station:SCCF:53:1,2011-12-08T07:00:00Z,26.6493,-81.8810,2.266,5.6,1111122 
SCCF RECON,ioos:station:SCCF:53:1,2011-12-08T08:00:00Z,26.6493,-81.8810,2.222,5.95,1111122 
SCCF RECON,ioos:station:SCCF:53:1,2011-12-08T09:00:00Z,26.6493,-81.8810,2.179,6.99,1111122 
SCCF RECON,ioos:station:SCCF:53:1,2011-12-08T10:00:00Z,26.6493,-81.8810,2.134,7.05,1111122 
SCCF RECON,ioos:station:SCCF:53:1,2011-12-08T11:00:00Z,26.6493,-81.8810,2.09,7.06,1111122 
SCCF RECON,ioos:station:SCCF:53:1,2011-12-08T12:00:00Z,26.6493,-81.8810,2.041,7.04,1111122 
SCCF RECON,ioos:station:SCCF:53:1,2011-12-08T13:00:00Z,26.6493,-81.8810,2.0,7.1,1111122 
SCCF RECON,ioos:station:SCCF:53:1,2011-12-08T14:00:00Z,26.6493,-81.8810,1.959,7.19,1111122 
SCCF RECON,ioos:station:SCCF:53:1,2011-12-08T15:00:00Z,26.6493,-81.8810,1.93,7.26,1111122 
SCCF RECON,ioos:station:SCCF:53:1,2011-12-08T16:00:00Z,26.6493,-81.8810,1.92,7.38,1111122 
SCCF RECON,ioos:station:SCCF:53:1,2011-12-08T17:00:00Z,26.6493,-81.8810,1.95,7.32,1111122 
SCCF RECON,ioos:station:SCCF:53:1,2011-12-08T18:00:00Z,26.6493,-81.8810,1.981,7.6,1111122 
SCCF RECON,ioos:station:SCCF:53:1,2011-12-08T19:00:00Z,26.6493,-81.8810,2.02,7.78,1111122 
SCCF RECON,ioos:station:SCCF:53:1,2011-12-08T20:00:00Z,26.6493,-81.8810,2.07,7.76,1111122 
SCCF RECON,ioos:station:SCCF:53:1,2011-12-08T21:00:00Z,26.6493,-81.8810,2.108,7.62,1111122 
SCCF RECON,ioos:station:SCCF:53:1,2011-12-08T22:00:00Z,26.6493,-81.8810,2.14,7.14,1111122 
SCCF RECON,ioos:station:SCCF:53:1,2011-12-08T23:00:00Z,26.6493,-81.8810,2.17,7.38,1111122 
SCCF RECON,ioos:station:SCCF:53:1,2011-12-09T00:00:00Z,26.6493,-81.8810,2.2,7.43,1111122 
SCCF RECON,ioos:station:SCCF:53:1,2011-12-09T01:00:00Z,26.6493,-81.8810,2.24,7.38,1111122 
SCCF RECON,ioos:station:SCCF:53:1,2011-12-09T02:00:00Z,26.6493,-81.8810,2.28,7.41,1111122 
SCCF RECON,ioos:station:SCCF:53:1,2011-12-09T03:00:00Z,26.6493,-81.8810,2.33,7.38,1111122 
SCCF RECON,ioos:station:SCCF:53:1,2011-12-09T04:00:00Z,26.6493,-81.8810,2.38,7.53,1111122 
SCCF RECON,ioos:station:SCCF:53:1,2011-12-09T05:00:00Z,26.6493,-81.8810,2.42,7.48,1111122 
SCCF RECON,ioos:station:SCCF:53:1,2011-12-09T06:00:00Z,26.6493,-81.8810,2.45,7.48,1111122 
SCCF RECON,ioos:station:SCCF:53:1,2011-12-09T07:00:00Z,26.6493,-81.8810,2.46,7.45,1111122 
SCCF RECON,ioos:station:SCCF:53:1,2011-12-09T08:00:00Z,26.6493,-81.8810,2.4,7.44,1111122 
SCCF RECON,ioos:station:SCCF:53:1,2011-12-09T09:00:00Z,26.6493,-81.8810,2.35,7.47,1111122 
SCCF RECON,ioos:station:SCCF:53:1,2011-12-09T10:00:00Z,26.6493,-81.8810,2.293,7.35,1111122 
SCCF RECON,ioos:station:SCCF:53:1,2011-12-09T11:00:00Z,26.6493,-81.8810,2.23,7.27,1111122 
SCCF RECON,ioos:station:SCCF:53:1,2011-12-09T12:00:00Z,26.6493,-81.8810,2.18,7.35,1111122 
SCCF RECON,ioos:station:SCCF:53:1,2011-12-09T13:00:00Z,26.6493,-81.8810,2.13,7.19,1111122 
SCCF RECON,ioos:station:SCCF:53:1,2011-12-09T14:00:00Z,26.6493,-81.8810,2.09,7.18,1111122 
SCCF RECON,ioos:station:SCCF:53:1,2011-12-09T15:00:00Z,26.6493,-81.8810,2.06,7.17,1111122 
SCCF RECON,ioos:station:SCCF:53:1,2011-12-09T16:00:00Z,26.6493,-81.8810,2.06,7.22,1111122 
SCCF RECON,ioos:station:SCCF:53:1,2011-12-09T17:00:00Z,26.6493,-81.8810,2.095,7.31,1111122 
SCCF RECON,ioos:station:SCCF:53:1,2011-12-09T18:00:00Z,26.6493,-81.8810,2.131,7.25,1111122 
SCCF RECON,ioos:station:SCCF:53:1,2011-12-09T19:00:00Z,26.6493,-81.8810,2.174,7.38,1111122 
SCCF RECON,ioos:station:SCCF:53:1,2011-12-09T20:00:00Z,26.6493,-81.8810,2.22,7.43,1111122 
SCCF RECON,ioos:station:SCCF:53:1,2011-12-09T21:00:00Z,26.6493,-81.8810,2.243,7.42,1111122 
SCCF RECON,ioos:station:SCCF:53:1,2011-12-09T22:00:00Z,26.6493,-81.8810,2.248,7.42,1111122 
SCCF RECON,ioos:station:SCCF:53:1,2011-12-09T23:00:00Z,26.6493,-81.8810,2.24,7.31,1111122 
SCCF RECON,ioos:station:SCCF:53:1,2011-12-10T00:00:00Z,26.6493,-81.8810,2.245,7.33,1111122 
SCCF RECON,ioos:station:SCCF:53:1,2011-12-10T01:00:00Z,26.6493,-81.8810,2.255,7.16,1111122 
SCCF RECON,ioos:station:SCCF:53:1,2011-12-10T02:00:00Z,26.6493,-81.8810,2.27,7.07,1111122 
SCCF RECON,ioos:station:SCCF:53:1,2011-12-10T03:00:00Z,26.6493,-81.8810,2.31,6.82,1111122 
SCCF RECON,ioos:station:SCCF:53:1,2011-12-10T04:00:00Z,26.6493,-81.8810,2.36,6.83,1111122 
SCCF RECON,ioos:station:SCCF:53:1,2011-12-10T05:00:00Z,26.6493,-81.8810,2.4,6.65,1111122 
SCCF RECON,ioos:station:SCCF:53:1,2011-12-10T06:00:00Z,26.6493,-81.8810,2.443,6.67,1111122 
SCCF RECON,ioos:station:SCCF:53:1,2011-12-10T07:00:00Z,26.6493,-81.8810,2.47,6.68,1111122 
SCCF RECON,ioos:station:SCCF:53:1,2011-12-10T08:00:00Z,26.6493,-81.8810,2.44,6.51,1111122 
SCCF RECON,ioos:station:SCCF:53:1,2011-12-10T09:00:00Z,26.6493,-81.8810,2.37,6.55,1111122 
SCCF RECON,ioos:station:SCCF:53:1,2011-12-10T10:00:00Z,26.6493,-81.8810,2.32,6.4,1111122 
SCCF RECON,ioos:station:SCCF:53:1,2011-12-10T11:00:00Z,26.6493,-81.8810,2.26,6.61,1111122 
SCCF RECON,ioos:station:SCCF:53:1,2011-12-10T12:00:00Z,26.6493,-81.8810,2.206,6.57,1111122 
SCCF RECON,ioos:station:SCCF:53:1,2011-12-10T13:00:00Z,26.6493,-81.8810,2.154,6.48,1111122 
SCCF RECON,ioos:station:SCCF:53:1,2011-12-10T14:00:00Z,26.6493,-81.8810,2.106,6.43,1111122 
SCCF RECON,ioos:station:SCCF:53:1,2011-12-10T15:00:00Z,26.6493,-81.8810,2.061,6.37,1111122 
SCCF RECON,ioos:station:SCCF:53:1,2011-12-10T16:00:00Z,26.6493,-81.8810,2.03,6.32,1111122 
SCCF RECON,ioos:station:SCCF:53:1,2011-12-10T17:00:00Z,26.6493,-81.8810,2.04,6.52,1111122 
SCCF RECON,ioos:station:SCCF:53:1,2011-12-10T18:00:00Z,26.6493,-81.8810,2.083,6.67,1111122 
SCCF RECON,ioos:station:SCCF:53:1,2011-12-10T19:00:00Z,26.6493,-81.8810,2.128,6.84,1111122 
SCCF RECON,ioos:station:SCCF:53:1,2011-12-10T20:00:00Z,26.6493,-81.8810,2.18,6.75,1111122 
SCCF RECON,ioos:station:SCCF:53:1,2011-12-10T21:00:00Z,26.6493,-81.8810,2.219,6.85,1111122 
SCCF RECON,ioos:station:SCCF:53:1,2011-12-10T22:00:00Z,26.6493,-81.8810,2.24,6.73,1111122 
SCCF RECON,ioos:station:SCCF:53:1,2011-12-10T23:00:00Z,26.6493,-81.8810,2.221,6.62,1111122 
SCCF RECON,ioos:station:SCCF:53:1,2011-12-11T00:00:00Z,26.6493,-81.8810,2.203,6.71,1111122 
SCCF RECON,ioos:station:SCCF:53:1,2011-12-11T01:00:00Z,26.6493,-81.8810,2.18,6.44,1111122 
SCCF RECON,ioos:station:SCCF:53:1,2011-12-11T02:00:00Z,26.6493,-81.8810,2.159,6.47,1111122 
SCCF RECON,ioos:station:SCCF:53:1,2011-12-11T03:00:00Z,26.6493,-81.8810,2.18,6.69,1111122 
SCCF RECON,ioos:station:SCCF:53:1,2011-12-11T04:00:00Z,26.6493,-81.8810,2.235,6.63,1111122 
SCCF RECON,ioos:station:SCCF:53:1,2011-12-11T05:00:00Z,26.6493,-81.8810,2.28,6.49,1111122 
SCCF RECON,ioos:station:SCCF:53:1,2011-12-11T06:00:00Z,26.6493,-81.8810,2.326,6.49,1111122 
SCCF RECON,ioos:station:SCCF:53:1,2011-12-11T07:00:00Z,26.6493,-81.8810,2.369,6.58,1111122 
SCCF RECON,ioos:station:SCCF:53:1,2011-12-11T08:00:00Z,26.6493,-81.8810,2.381,6.67,1111122 
SCCF RECON,ioos:station:SCCF:53:1,2011-12-11T09:00:00Z,26.6493,-81.8810,2.34,6.7,1111122 
SCCF RECON,ioos:station:SCCF:53:1,2011-12-11T10:00:00Z,26.6493,-81.8810,2.281,6.42,1111122 
SCCF RECON,ioos:station:SCCF:53:1,2011-12-11T11:00:00Z,26.6493,-81.8810,2.23,6.49,1111122 
SCCF RECON,ioos:station:SCCF:53:1,2011-12-11T12:00:00Z,26.6493,-81.8810,2.183,6.45,1111122 
SCCF RECON,ioos:station:SCCF:53:1,2011-12-11T13:00:00Z,26.6493,-81.8810,2.133,6.62,1111122 
SCCF RECON,ioos:station:SCCF:53:1,2011-12-11T14:00:00Z,26.6493,-81.8810,2.087,6.75,1111122 
SCCF RECON,ioos:station:SCCF:53:1,2011-12-11T15:00:00Z,26.6493,-81.8810,2.04,6.87,1111122 
SCCF RECON,ioos:station:SCCF:53:1,2011-12-11T16:00:00Z,26.6493,-81.8810,2.001,6.93,1111122 
SCCF RECON,ioos:station:SCCF:53:1,2011-12-11T17:00:00Z,26.6493,-81.8810,1.977,6.93,1111122 
SCCF RECON,ioos:station:SCCF:53:1,2011-12-11T18:00:00Z,26.6493,-81.8810,1.988,6.95,1111122 
SCCF RECON,ioos:station:SCCF:53:1,2011-12-11T19:00:00Z,26.6493,-81.8810,2.03,7.06,1111122 
SCCF RECON,ioos:station:SCCF:53:1,2011-12-11T20:00:00Z,26.6493,-81.8810,2.072,7.14,1111122 